Location: Newark
(52.5667°N, 8.8000°W)
Time: 07:23:11
(UTC+00:00)

N. Korean satellite - Pass Details

Date: 28 January 2020
Orbit: 456 x 505 km, 97.2° (Epoch: 20 February)

Event Time Altitude Azimuth Distance (km) Brightness Sun altitude
Rises 18:12:46 0° 196° (SSW) 2,465 10.7 -9.2°
Reaches altitude 10° 18:15:04 10° 211° (SSW) 1,599 9.9 -9.5°
Maximum altitude 18:17:54 24° 266° (W) 1,009 9.2 -9.9°
Drops below altitude 10° 18:20:46 10° 322° (NW) 1,622 9.5 -10.3°
Sets 18:23:07 0° 337° (NNW) 2,510 10.3 -10.7°
